2016-024A

Last updated on April 10, 2016, 9:35 a.m. UTC

1 41452U 16024A   16101.20428384 -.00369544  00000-0 -50897-2 0  9993
2 41452  51.6449  37.0980 0002029  24.6076  56.5737 15.57822553   211
UTC
Height (km)
Latitude
Longitude
Inclination
Orbital Period
UTC large
Height (km)
Speed (km/s)
/
Latitude / Longitude
Inclination (degrees)
Orbital Period (minutes)
Azimuth
Elevation
Range (km)
Doppler Factor
iOS Compass Heading
iOS Angle

Next 30 passes for location: Hong Kong

Rise time Rise Azimuth (degrees) Set time Set Azimuth (degrees) Duration Max altitude (degrees)

No matching passes for this satellites